User: anonymous   Login
Location: Mt. Stromlo, Australia
(35.3200°S, 149.0080°E)
Time: 17:16:52
(UTC+10:00)
Language:

Molniya-1T - Orbit

View from above orbital plane
View from above orbital plane
View from above satellite
View from above satellite

Ground track
Ground track

The orbit data is extracted from the following two-line orbital elements,

1 24960U 97054A   21171.29836993  .00000050  00000-0  79043-3 0  9998
2 24960  63.5977 246.9493 6263446 300.5694  12.4413  3.18687439196544
Epoch (UTC): 20 June 2021 07:09:39
Eccentricity: 0.6263446
inclination: 63.5977°
perigee height: 910 km
apogee height: 25344 km
right ascension of ascending node: 246.9493°
argument of perigee: 300.5694°
revolutions per day: 3.18687439
mean anomaly at epoch: 12.4413°
orbit number at epoch: 19654

The dashed part of the orbit path shows where the satellite is in the earth's shadow,  

DLR